Total_Precipitation_Accumulation
0.21 0.51 1.16 1.71 2.54 2.75 2.07 1.20 0.93 0.68 0.60 0.70 0.65 0.56 0.69 0.95 1.42 2.54 2.66 2.57 2.09 1.96 2.09 2.58 3.09 2.85 2.57 2.42 2.42 2.40 2.18 2.18 2.35 2.56 2.62 2.73 2.82 2.91 2.97 3.15 3.31 3.52 3.92 3.72 3.18 2.77 2.70 2.66 2.54
0.44 0.87 1.53 2.17 2.94 2.76 1.90 1.11 0.87 0.59 0.57 0.61 0.52 0.48 0.61 0.73 0.92 1.60 2.33 2.39 1.82 1.61 1.75 2.07 2.55 2.57 2.33 2.19 2.21 2.19 2.14 2.13 2.37 2.70 2.65 2.70 2.79 2.91 3.07 3.37 3.38 3.45 3.39 2.94 2.72 2.46 2.34 2.22 2.24
0.77 1.21 1.84 2.37 2.22 1.94 1.29 0.80 0.61 0.50 0.59 0.60 0.52 0.53 0.75 1.09 1.22 1.62 1.87 1.79 1.54 1.41 1.59 2.08 2.35 2.27 2.16 2.04 1.99 1.98 2.10 2.20 2.52 2.70 2.55 2.57 2.60 2.73 2.97 3.35 3.33 3.13 2.81 2.53 2.43 2.22 2.17 1.96 1.90
0.99 1.53 1.77 1.79 1.52 1.15 0.82 0.65 0.49 0.47 0.58 0.53 0.51 0.79 1.11 1.33 1.18 1.28 1.37 1.32 1.20 1.29 1.60 2.04 2.12 1.85 1.78 1.86 1.89 1.93 2.11 2.41 2.65 2.50 2.50 2.53 2.59 2.60 2.69 2.79 2.84 2.71 2.40 2.30 2.18 2.02 1.96 1.85 1.81
1.14 1.74 1.90 1.42 1.07 0.82 0.63 0.54 0.47 0.46 0.43 0.51 0.63 1.08 1.56 1.60 1.11 1.15 1.20 1.08 1.04 1.35 1.67 1.82 1.95 1.70 1.58 1.70 1.85 2.06 2.35 2.67 2.60 2.35 2.28 2.30 2.34 2.35 2.34 2.35 2.39 2.41 2.24 2.13 2.05 2.00 1.86 1.93 1.90
1.39 1.58 1.48 1.06 0.80 0.60 0.54 0.48 0.42 0.41 0.46 0.55 0.70 0.94 1.73 1.78 1.35 1.42 1.28 1.26 1.27 1.41 1.54 1.75 1.89 1.70 1.61 1.70 1.83 2.01 2.39 2.62 2.46 2.24 2.13 2.05 1.97 1.98 2.05 2.12 2.21 2.23 2.06 1.93 1.92 1.91 1.88 1.91 1.85
1.37 1.40 1.10 0.71 0.60 0.52 0.45 0.38 0.38 0.42 0.58 0.66 0.74 1.09 1.90 2.14 1.67 1.47 1.50 1.59 1.52 1.59 1.77 1.78 1.64 1.63 1.78 1.97 2.08 2.12 2.39 2.47 2.32 2.22 2.08 1.97 1.88 1.93 1.96 1.90 2.01 2.06 1.99 1.94 1.87 1.88 1.84 1.87 1.86
0.89 0.87 0.72 0.51 0.46 0.49 0.36 0.30 0.35 0.44 0.61 0.73 0.89 1.25 2.00 2.09 1.69 1.54 1.64 1.92 1.76 1.71 1.73 1.68 1.52 1.58 1.65 1.90 2.32 2.41 2.43 2.41 2.34 2.25 2.18 2.02 1.92 2.05 2.05 1.81 2.00 2.06 2.14 2.10 2.11 2.20 1.95 1.92 2.06
0.55 0.69 0.58 0.41 0.35 0.38 0.32 0.28 0.34 0.47 0.60 0.73 1.01 1.25 1.47 1.50 1.58 1.54 1.78 2.19 2.25 1.96 1.81 1.65 1.36 1.52 1.78 2.02 2.17 2.33 2.36 2.50 2.57 2.53 2.40 2.36 2.41 2.40 2.49 2.22 2.56 2.53 2.56 2.50 2.53 2.61 2.47 2.39 2.29
0.47 0.57 0.45 0.28 0.24 0.26 0.26 0.25 0.34 0.64 0.85 1.13 1.41 1.40 1.27 1.30 1.51 1.66 1.88 2.34 2.45 2.29 2.06 1.82 1.58 1.65 1.96 1.97 2.00 2.20 2.20 2.39 2.53 2.67 2.56 2.86 3.15 2.99 2.36 2.68 3.14 3.29 3.26 3.10 3.15 3.29 3.08 2.73 2.49
0.40 0.40 0.29 0.24 0.22 0.18 0.18 0.24 0.32 0.51 1.07 1.59 1.85 1.81 1.66 1.45 1.66 2.01 2.38 2.73 2.53 2.29 2.18 2.12 1.97 1.98 1.94 2.08 2.06 2.25 2.45 2.85 2.75 2.66 2.66 3.12 3.02 2.74 2.54 2.85 3.35 3.76 3.52 3.27 3.36 3.57 3.15 3.17 3.46
0.32 0.26 0.18 0.16 0.16 0.13 0.17 0.26 0.40 0.56 1.07 1.37 1.55 1.61 1.61 1.61 1.74 1.98 2.27 2.58 2.79 2.75 2.63 2.54 2.46 2.41 2.44 2.39 2.28 2.22 2.34 2.58 2.71 2.93 2.68 3.02 3.33 3.27 3.21 3.54 3.54 3.78 3.87 4.21 3.97 4.11 3.92 3.83 3.61
0.25 0.19 0.14 0.12 0.13 0.13 0.16 0.28 0.46 0.67 0.93 0.97 1.02 1.13 1.39 1.68 2.11 2.40 2.51 2.85 2.97 3.15 3.06 3.02 2.96 2.97 3.03 3.03 2.87 2.35 2.52 2.62 2.75 3.07 3.10 3.23 3.60 3.77 3.83 3.86 3.78 3.47 3.75 4.19 4.48 4.08 4.43 4.45 4.00
0.22 0.16 0.14 0.15 0.14 0.17 0.20 0.29 0.44 0.69 0.80 0.83 0.91 1.10 1.38 1.71 2.02 2.46 2.74 3.14 3.15 3.25 3.47 3.69 3.64 3.54 3.61 3.54 3.44 3.22 3.01 3.20 3.18 3.38 3.59 3.79 4.14 4.36 4.30 4.12 4.02 3.62 3.54 3.87 4.09 4.08 4.59 4.44 4.16
0.20 0.22 0.22 0.20 0.18 0.22 0.37 0.60 0.68 0.80 0.80 0.95 1.05 1.31 1.50 1.80 2.17 2.27 2.45 2.74 3.08 3.40 3.96 4.35 4.40 4.30 4.34 4.33 4.05 3.78 3.72 3.73 4.01 4.28 4.35 4.36 4.49 4.83 4.61 4.36 3.94 3.67 3.66 3.93 3.93 3.97 4.12 3.92 3.79
0.27 0.38 0.45 0.35 0.26 0.27 0.47 0.99 0.94 0.89 0.93 1.10 1.13 1.38 1.72 1.82 2.15 2.28 2.34 2.59 3.24 3.75 4.39 4.81 4.96 5.17 5.09 5.14 4.93 4.52 4.41 4.41 4.47 4.60 4.81 4.60 4.58 4.51 4.59 4.26 3.75 3.74 3.69 3.81 4.02 3.88 3.97 3.94 3.92
0.36 0.44 0.50 0.49 0.32 0.32 0.49 0.92 0.97 0.93 1.08 1.21 1.35 1.39 1.55 1.79 2.22 2.51 2.69 2.83 3.46 4.14 4.86 5.40 5.97 6.22 6.07 5.82 5.52 5.23 5.19 5.04 4.85 4.85 4.87 4.73 4.39 4.17 4.43 4.16 3.92 3.78 3.74 3.66 3.44 3.94 4.09 4.11 4.08
0.41 0.42 0.49 0.55 0.34 0.33 0.56 0.82 0.99 1.07 1.22 1.35 1.37 1.34 1.48 1.83 2.05 2.40 2.77 3.18 3.74 4.24 5.03 5.76 6.49 6.70 6.45 5.93 5.72 5.70 5.51 5.20 4.93 4.72 4.68 4.36 4.15 3.78 4.03 3.77 3.68 3.78 3.96 3.84 3.89 4.27 4.27 3.92 4.01
0.29 0.35 0.47 0.48 0.33 0.39 0.61 0.81 1.00 1.19 1.33 1.35 1.46 1.44 1.63 1.91 2.09 2.47 2.88 3.36 3.89 4.44 5.16 5.84 6.43 6.54 6.43 6.11 5.81 5.59 5.14 4.83 4.51 4.26 4.10 3.85 3.55 3.43 3.83 3.52 3.89 3.75 3.71 3.58 3.56 3.80 3.84 3.47 3.66
0.25 0.35 0.49 0.47 0.35 0.41 0.65 0.90 1.16 1.24 1.17 1.14 1.33 1.42 1.49 1.70 2.02 2.41 2.99 3.28 3.63 4.19 4.79 5.19 5.29 5.10 5.04 5.14 5.11 4.85 4.85 4.69 4.63 4.48 4.34 3.86 3.63 3.51 3.30 3.54 3.36 3.34 3.52 3.33 3.29 3.53 3.54 3.17 3.49
0.19 0.30 0.39 0.43 0.44 0.53 0.76 1.18 1.43 1.42 1.14 1.03 1.06 1.19 1.32 1.45 1.67 2.04 2.61 2.95 3.13 3.66 4.02 4.03 4.03 4.02 4.15 4.25 4.22 4.27 4.54 4.63 4.74 4.71 4.50 4.15 3.90 3.66 3.47 3.34 3.19 3.19 3.01 3.20 3.26 3.32 3.46 3.44 3.33
0.21 0.20 0.26 0.32 0.48 0.83 0.94 1.51 1.76 1.84 1.56 1.21 1.09 1.25 1.32 1.38 1.40 1.73 2.09 2.33 2.62 2.91 3.08 3.08 3.21 3.39 3.50 3.57 3.60 3.51 3.54 3.83 4.14 4.41 4.55 4.50 4.21 3.88 3.54 3.31 3.13 2.98 2.80 3.11 2.80 2.95 3.28 3.52 3.21
0.14 0.14 0.21 0.33 0.47 0.69 0.82 1.17 1.72 2.01 1.97 1.55 1.26 1.20 1.16 1.29 1.46 1.64 1.77 1.98 2.09 2.19 2.34 2.42 2.69 3.18 3.41 3.47 3.60 3.55 3.30 3.32 3.43 3.58 3.81 3.82 3.84 3.64 3.25 3.14 3.07 2.90 2.72 2.78 2.79 3.16 3.15 3.10 3.03
0.13 0.20 0.32 0.48 0.71 1.09 0.93 1.05 1.62 1.83 1.84 1.46 1.24 1.16 1.06 1.06 1.18 1.39 1.67 1.78 1.78 1.81 1.96 2.17 2.50 3.08 3.41 3.50 3.39 3.42 3.46 3.53 3.43 3.38 3.49 3.40 3.37 3.28 2.98 2.84 2.96 2.84 2.74 2.81 2.81 2.92 2.97 3.13 3.19
0.16 0.33 0.79 1.28 1.60 1.65 1.00 0.97 1.26 1.34 1.21 1.18 1.06 1.09 1.14 1.04 0.97 0.98 1.16 1.41 1.44 1.43 1.59 1.85 2.13 2.61 2.95 3.11 2.97 2.93 3.15 3.35 3.25 3.06 3.00 2.98 2.84 2.77 2.72 2.72 2.85 2.73 2.77 2.82 2.94 2.98 2.96 3.08 3.11
0.16 0.27 0.66 1.03 1.18 1.30 1.16 1.50 1.57 1.17 0.98 0.89 0.79 0.85 0.94 0.84 0.75 0.71 0.77 0.96 1.22 1.25 1.36 1.52 1.80 2.07 2.39 2.61 2.67 2.73 2.93 3.06 3.01 3.21 2.95 2.80 2.46 2.34 2.45 2.66 2.66 2.57 2.55 2.58 3.03 3.03 3.04 3.15 3.06
0.17 0.19 0.31 0.48 0.69 1.04 1.34 1.57 1.48 1.21 1.10 0.92 0.76 0.73 0.72 0.66 0.66 0.70 0.75 0.96 1.05 1.05 1.16 1.33 1.55 1.76 2.03 2.28 2.46 2.53 2.51 2.53 2.68 2.85 2.79 2.63 2.54 2.28 2.35 2.46 2.71 2.78 2.83 2.88 3.06 3.01 3.03 3.25 3.18
0.16 0.18 0.25 0.38 0.65 0.93 1.25 1.70 1.75 1.50 1.26 1.07 1.00 0.82 0.71 0.71 0.71 0.71 0.71 0.77 0.83 0.90 1.06 1.29 1.50 1.54 1.78 2.15 2.41 2.35 2.44 2.36 2.51 2.49 2.47 2.49 2.41 2.35 2.43 2.46 2.55 2.76 2.88 2.90 3.03 3.01 3.07 3.27 3.29
0.20 0.19 0.21 0.29 0.36 0.59 1.15 1.39 1.23 1.22 1.15 1.09 0.99 0.93 0.86 0.81 0.76 0.72 0.73 0.74 0.85 0.82 0.93 1.13 1.30 1.44 1.71 2.07 2.41 2.49 2.44 2.44 2.50 2.32 2.26 2.37 2.39 2.37 2.45 2.49 2.48 2.46 2.61 2.85 3.08 2.98 3.13 3.25 3.28
0.21 0.20 0.22 0.31 0.32 0.38 0.62 0.95 0.73 0.83 0.95 0.99 0.87 0.81 0.76 0.65 0.62 0.58 0.57 0.66 0.67 0.70 0.83 1.17 1.47 1.84 2.04 2.39 2.77 2.87 2.67 2.47 2.31 2.10 2.08 2.25 2.42 2.45 2.44 2.45 2.44 2.37 2.48 2.76 2.90 3.00 3.31 3.44 3.30